User: anonymous   Login
Location: Unspecified
(0.0000°N, 0.0000°E)
Time: 00:08:30
(UTC+00:00)
Language:

Courier 1B Rocket - Orbit

View from above orbital plane
View from above orbital plane
View from above satellite
View from above satellite

Ground track
Ground track

The orbit data is extracted from the following two-line orbital elements,

1    59U 60013B   19258.14868976  .00000109  00000-0  27484-4 0  9997
2    59  28.2470 197.5130 0189313 127.0860 234.7150 13.52971133909661
Epoch (UTC): 15 September 2019 03:34:06
Eccentricity: 0.0189313
inclination: 28.2470°
perigee height: 920 km
apogee height: 1202 km
right ascension of ascending node: 197.5130°
argument of perigee: 127.0860°
revolutions per day: 13.52971133
mean anomaly at epoch: 234.7150°
orbit number at epoch: 90966

The dashed part of the orbit path shows where the satellite is in the earth's shadow,  

DLR